• In Deutschland
  • Länderverzeichnis
  • Für 7 Tage
  • Wassertemperatur
  • Satellitenkarten
  • Wetterkarte
  • Widgets
  • user-avatar
    Anmelden

    Stündliche Wetter Asadabad

    Heute, 26 September, Dienstag

    Zeit Temperatur Niederschläge Wind Luftdruck Luftfeuchtigkeit
    00:00 +20°C° 0 mm 2 m/S 657 mmHg 35%
    01:00 +20°C° 0 mm 2 m/S 657 mmHg 34%
    02:00 +20°C° 0 mm 2 m/S 657 mmHg 33%
    03:00 +19°C° 0 mm 2 m/S 657 mmHg 32%
    04:00 +19°C° 0 mm 2 m/S 657 mmHg 31%
    05:00 +19°C° 0 mm 2 m/S 657 mmHg 28%
    06:00 +21°C° 0 mm 2 m/S 657 mmHg 26%
    07:00 +23°C° 0 mm 2 m/S 658 mmHg 24%
    08:00 +25°C° 0 mm 2 m/S 659 mmHg 22%
    09:00 +26°C° 0 mm 2 m/S 659 mmHg 21%
    10:00 +27°C° 0 mm 2 m/S 659 mmHg 19%
    11:00 +29°C° 0 mm 2 m/S 659 mmHg 16%
    12:00 +30°C° 0 mm 2 m/S 659 mmHg 16%
    13:00 +30°C° 0 mm 2 m/S 659 mmHg 16%
    14:00 +31°C° 0 mm 3 m/S 659 mmHg 16%
    15:00 +30°C° 0 mm 2 m/S 659 mmHg 17%
    16:00 +30°C° 0 mm 2 m/S 659 mmHg 17%
    17:00 +30°C° 0 mm 2 m/S 658 mmHg 19%
    18:00 +27°C° 0 mm 1 m/S 658 mmHg 23%
    19:00 +25°C° 0 mm 1 m/S 658 mmHg 27%
    20:00 +21°C° 0 mm 0 m/S 658 mmHg 30%
    21:00 +22°C° 0 mm 1 m/S 658 mmHg 30%
    22:00 +22°C° 0 mm 1 m/S 658 mmHg 30%
    23:00 +22°C° 0 mm 1 m/S 658 mmHg 30%

    Morgen, 27 September, Mittwoch

    Zeit Temperatur Niederschläge Wind Luftdruck Luftfeuchtigkeit
    00:00 +21°C° 0 mm 1 m/S 658 mmHg 31%
    01:00 +20°C° 0 mm 2 m/S 657 mmHg 31%
    02:00 +20°C° 0 mm 2 m/S 657 mmHg 31%
    03:00 +19°C° 0 mm 2 m/S 657 mmHg 31%
    04:00 +19°C° 0 mm 2 m/S 657 mmHg 31%
    05:00 +19°C° 0 mm 2 m/S 657 mmHg 32%
    06:00 +21°C° 0 mm 2 m/S 658 mmHg 29%
    07:00 +23°C° 0 mm 2 m/S 659 mmHg 26%
    08:00 +25°C° 0 mm 1 m/S 660 mmHg 23%
    09:00 +27°C° 0 mm 2 m/S 660 mmHg 20%
    10:00 +28°C° 0 mm 2 m/S 660 mmHg 18%
    11:00 +29°C° 0 mm 2 m/S 661 mmHg 16%
    12:00 +30°C° 0 mm 2 m/S 660 mmHg 15%
    13:00 +30°C° 0 mm 2 m/S 660 mmHg 15%
    14:00 +31°C° 0 mm 3 m/S 660 mmHg 14%
    15:00 +31°C° 0 mm 2 m/S 659 mmHg 15%
    16:00 +30°C° 0 mm 2 m/S 659 mmHg 15%
    17:00 +30°C° 0 mm 2 m/S 659 mmHg 16%
    18:00 +27°C° 0 mm 1 m/S 659 mmHg 19%
    19:00 +25°C° 0 mm 1 m/S 659 mmHg 22%
    20:00 +23°C° 0 mm 1 m/S 658 mmHg 25%
    21:00 +22°C° 0 mm 1 m/S 658 mmHg 25%
    22:00 +22°C° 0 mm 1 m/S 658 mmHg 25%
    23:00 +21°C° 0 mm 2 m/S 658 mmHg 25%

    übermorgen, 28 September, Donnerstag

    Zeit Temperatur Niederschläge Wind Luftdruck Luftfeuchtigkeit
    00:00 +21°C° 0 mm 2 m/S 658 mmHg 25%
    01:00 +20°C° 0 mm 2 m/S 657 mmHg 25%
    02:00 +20°C° 0 mm 2 m/S 657 mmHg 25%
    03:00 +20°C° 0 mm 2 m/S 657 mmHg 25%
    04:00 +19°C° 0 mm 2 m/S 657 mmHg 25%
    05:00 +19°C° 0 mm 3 m/S 657 mmHg 25%
    06:00 +21°C° 0 mm 2 m/S 657 mmHg 23%
    07:00 +23°C° 0 mm 2 m/S 658 mmHg 21%
    08:00 +25°C° 0 mm 2 m/S 659 mmHg 20%
    09:00 +27°C° 0 mm 2 m/S 659 mmHg 18%
    10:00 +28°C° 0 mm 2 m/S 659 mmHg 16%
    11:00 +29°C° 0 mm 2 m/S 659 mmHg 14%
    12:00 +30°C° 0 mm 2 m/S 659 mmHg 14%
    13:00 +31°C° 0 mm 2 m/S 659 mmHg 13%
    14:00 +31°C° 0 mm 2 m/S 658 mmHg 13%
    15:00 +31°C° 0 mm 2 m/S 658 mmHg 14%
    16:00 +30°C° 0 mm 2 m/S 658 mmHg 15%
    17:00 +30°C° 0 mm 2 m/S 658 mmHg 16%
    18:00 +28°C° 0 mm 1 m/S 657 mmHg 19%
    19:00 +25°C° 0 mm 1 m/S 657 mmHg 23%
    20:00 +23°C° 0 mm 1 m/S 657 mmHg 26%
    21:00 +22°C° 0 mm 1 m/S 657 mmHg 26%
    22:00 +22°C° 0 mm 1 m/S 657 mmHg 25%
    23:00 +21°C° 0 mm 2 m/S 657 mmHg 25%

    29 September, Freitag

    Zeit Temperatur Niederschläge Wind Luftdruck Luftfeuchtigkeit
    00:00 +21°C° 0 mm 2 m/S 657 mmHg 24%
    01:00 +20°C° 0 mm 2 m/S 657 mmHg 24%
    02:00 +20°C° 0 mm 2 m/S 657 mmHg 23%
    03:00 +20°C° 0 mm 2 m/S 656 mmHg 23%
    04:00 +19°C° 0 mm 2 m/S 656 mmHg 23%
    05:00 +19°C° 0 mm 2 m/S 656 mmHg 23%
    06:00 +21°C° 0 mm 2 m/S 657 mmHg 21%
    07:00 +23°C° 0 mm 2 m/S 658 mmHg 20%
    08:00 +25°C° 0 mm 2 m/S 658 mmHg 19%
    09:00 +26°C° 0 mm 2 m/S 659 mmHg 17%
    10:00 +28°C° 0 mm 2 m/S 659 mmHg 15%
    11:00 +29°C° 0 mm 2 m/S 659 mmHg 13%
    12:00 +30°C° 0 mm 2 m/S 659 mmHg 13%
    13:00 +30°C° 0 mm 2 m/S 659 mmHg 13%
    14:00 +31°C° 0 mm 3 m/S 658 mmHg 13%
    15:00 +30°C° 0 mm 2 m/S 658 mmHg 13%
    16:00 +30°C° 0 mm 2 m/S 658 mmHg 14%
    17:00 +30°C° 0 mm 2 m/S 658 mmHg 15%
    18:00 +27°C° 0 mm 2 m/S 658 mmHg 19%
    19:00 +25°C° 0 mm 1 m/S 658 mmHg 22%
    20:00 +23°C° 0 mm 1 m/S 658 mmHg 26%
    21:00 +22°C° 0 mm 1 m/S 658 mmHg 25%
    22:00 +22°C° 0 mm 1 m/S 658 mmHg 25%
    23:00 +21°C° 0 mm 2 m/S 658 mmHg 25%

    30 September, Samstag

    Zeit Temperatur Niederschläge Wind Luftdruck Luftfeuchtigkeit
    00:00 +20°C° 0 mm 2 m/S 658 mmHg 24%
    01:00 +20°C° 0 mm 2 m/S 658 mmHg 24%
    02:00 +20°C° 0 mm 2 m/S 658 mmHg 23%
    03:00 +20°C° 0 mm 2 m/S 658 mmHg 23%
    04:00 +19°C° 0 mm 2 m/S 658 mmHg 23%
    05:00 +19°C° 0 mm 3 m/S 658 mmHg 23%
    06:00 +20°C° 0 mm 2 m/S 659 mmHg 22%
    07:00 +23°C° 0 mm 2 m/S 659 mmHg 21%
    08:00 +25°C° 0 mm 2 m/S 660 mmHg 20%
    09:00 +26°C° 0 mm 2 m/S 660 mmHg 17%
    10:00 +28°C° 0 mm 2 m/S 660 mmHg 15%
    11:00 +29°C° 0 mm 2 m/S 661 mmHg 13%
    12:00 +30°C° 0 mm 2 m/S 660 mmHg 13%
    13:00 +30°C° 0 mm 2 m/S 660 mmHg 13%
    14:00 +31°C° 0 mm 3 m/S 659 mmHg 13%
    15:00 +31°C° 0 mm 2 m/S 659 mmHg 13%
    16:00 +30°C° 0 mm 2 m/S 659 mmHg 14%
    17:00 +30°C° 0 mm 2 m/S 659 mmHg 15%
    18:00 +27°C° 0 mm 2 m/S 659 mmHg 19%
    19:00 +25°C° 0 mm 1 m/S 659 mmHg 22%
    20:00 +23°C° 0 mm 1 m/S 659 mmHg 25%
    21:00 +23°C° 0 mm 1 m/S 659 mmHg 25%
    22:00 +21°C° 0 mm 2 m/S 658 mmHg 24%
    23:00 +21°C° 0 mm 2 m/S 658 mmHg 24%

    1 Oktober, Sonntag

    Zeit Temperatur Niederschläge Wind Luftdruck Luftfeuchtigkeit
    00:00 +21°C° 0 mm 2 m/S 658 mmHg 24%
    01:00 +20°C° 0 mm 2 m/S 658 mmHg 23%
    02:00 +20°C° 0 mm 3 m/S 657 mmHg 23%
    03:00 +20°C° 0 mm 3 m/S 657 mmHg 23%
    04:00 +19°C° 0 mm 3 m/S 657 mmHg 23%
    05:00 +19°C° 0 mm 3 m/S 657 mmHg 23%
    06:00 +21°C° 0 mm 2 m/S 658 mmHg 22%
    07:00 +23°C° 0 mm 2 m/S 658 mmHg 20%
    08:00 +25°C° 0 mm 2 m/S 659 mmHg 19%
    09:00 +27°C° 0 mm 2 m/S 659 mmHg 17%
    10:00 +28°C° 0 mm 2 m/S 659 mmHg 14%
    11:00 +30°C° 0 mm 2 m/S 660 mmHg 12%
    12:00 +30°C° 0 mm 2 m/S 659 mmHg 12%
    13:00 +31°C° 0 mm 2 m/S 659 mmHg 12%
    14:00 +31°C° 0 mm 3 m/S 659 mmHg 12%
    15:00 +31°C° 0 mm 2 m/S 658 mmHg 13%
    16:00 +31°C° 0 mm 2 m/S 658 mmHg 14%
    17:00 +30°C° 0 mm 2 m/S 658 mmHg 15%
    18:00 +28°C° 0 mm 1 m/S 658 mmHg 17%
    19:00 +25°C° 0 mm 1 m/S 658 mmHg 20%
    20:00 +23°C° 0 mm 1 m/S 657 mmHg 23%
    21:00 +23°C° 0 mm 1 m/S 658 mmHg 22%
    22:00 +21°C° 0 mm 2 m/S 658 mmHg 22%
    23:00 +21°C° 0 mm 2 m/S 658 mmHg 21%
    Mehr zeigen